WetterOnline ( https://www.wetteronline.de )

Wetter aktuell Tetenbüll

Aktuelles Wetter: St. Peter-Ording (11m)

6-stündlich | Neueste Meldungen
Ortszeit Temperatur Wetter
Fr, 12.07. 8:00 16.2° C bedeckt
Fr, 12.07. 2:00 16.1° C bewölkt
Do, 11.07. 20:00 18.2° C bewölkt
Do, 11.07. 14:00 19.8° C bewölkt
Do, 11.07. 8:00 18.1° C leicht bewölkt
Do, 11.07. 2:00 17.2° C wolkig
Mi, 10.07. 20:00 20.8° C wolkig
Mi, 10.07. 14:00 20.7° C leicht bewölkt
Ortszeit Temperatur Wetter
Fr, 12.07. 12:30 18.4° C bewölkt
Fr, 12.07. 12:20 18.4° C bewölkt
Fr, 12.07. 12:10 18.2° C bewölkt
Fr, 12.07. 12:00 18.0° C bewölkt
Fr, 12.07. 11:50 18.0° C bewölkt
Fr, 12.07. 11:40 18.2° C bewölkt
Fr, 12.07. 11:30 17.9° C bewölkt
Fr, 12.07. 11:00 17.9° C bewölkt
Fr, 12.07. 10:30 17.4° C leicht bewölkt
Fr, 12.07. 10:00 17.8° C wolkenlos
Fr, 12.07. 9:30 17.0° C fast wolkenlos
Ortszeit Relative Feuchte Sichtweite
Fr, 12.07. 8:00 72% 45 km
Fr, 12.07. 2:00 78% 50 km
Do, 11.07. 20:00 76% 60 km
Do, 11.07. 14:00 75% 40 km
Do, 11.07. 8:00 79% 45 km
Do, 11.07. 2:00 86% 50 km
Mi, 10.07. 20:00 82% 50 km
Mi, 10.07. 14:00 81% 28 km
Ortszeit Relative Feuchte Sichtweite
Fr, 12.07. 12:30 71% 45 km
Fr, 12.07. 12:20 71% -
Fr, 12.07. 12:10 71% -
Fr, 12.07. 12:00 70% 40 km
Fr, 12.07. 11:50 70% -
Fr, 12.07. 11:40 70% -
Fr, 12.07. 11:30 68% 40 km
Fr, 12.07. 11:00 67% 60 km
Fr, 12.07. 10:30 67% >70 km
Fr, 12.07. 10:00 68% 60 km
Fr, 12.07. 9:30 68% 60 km
Ortszeit Niederschlagsmenge Niederschlagsart
Fr, 12.07. 8:00 0.0 l/m2 in 12 Std. -
Fr, 12.07. 2:00 0.0 l/m2 in 6 Std. -
Do, 11.07. 20:00 0.0 l/m2 in 12 Std. -
Do, 11.07. 14:00 0.0 l/m2 in 6 Std. -
Do, 11.07. 8:00 0.9 l/m2 in 12 Std. -
Do, 11.07. 2:00 0.9 l/m2 in 6 Std. Regen
Mi, 10.07. 20:00 0.5 l/m2 in 12 Std. Regen
Mi, 10.07. 14:00 0.3 l/m2 in 6 Std. Regen
Ortszeit Niederschlagsmenge Niederschlagsart
Fr, 12.07. 12:30 0.0 l/m2 in 30 Min -
Fr, 12.07. 12:20 keine Meldung -
Fr, 12.07. 12:10 keine Meldung -
Fr, 12.07. 12:00 0.0 l/m2 in 1 Std. -
Fr, 12.07. 11:50 keine Meldung -
Fr, 12.07. 11:40 keine Meldung -
Fr, 12.07. 11:30 0.0 l/m2 in 30 Min -
Fr, 12.07. 11:00 0.0 l/m2 in 1 Std. -
Fr, 12.07. 10:30 0.0 l/m2 in 30 Min -
Fr, 12.07. 10:00 0.0 l/m2 in 1 Std. -
Fr, 12.07. 9:30 0.0 l/m2 in 30 Min -
Ortszeit Stärke Spitze Richtung
km/h Bft. km/h Grad Sektor
Fr, 12.07. 8:00 7 2 25 280° W
Fr, 12.07. 2:00 11 2 29 270° W
Do, 11.07. 20:00 14 3 32 260° W
Do, 11.07. 14:00 22 4 33 240° SW
Do, 11.07. 8:00 20 4 28 220° SW
Do, 11.07. 2:00 14 3 29 230° SW
Mi, 10.07. 20:00 4 1 29 270° W
Mi, 10.07. 14:00 19 3 35 230° SW
Ortszeit Stärke Spitze Richtung
km/h Bft. km/h Grad Sektor
Fr, 12.07. 12:30 13 3 19 40° NO
Fr, 12.07. 12:20 13 3 - 40° NO
Fr, 12.07. 12:10 11 2 - 30° NO
Fr, 12.07. 12:00 13 3 19 20° N
Fr, 12.07. 11:50 13 3 - 20° N
Fr, 12.07. 11:40 11 2 - 30° NO
Fr, 12.07. 11:30 9 2 17 20° N
Fr, 12.07. 11:00 6 1 15 20° N
Fr, 12.07. 10:30 7 2 14 340° N
Fr, 12.07. 10:00 9 2 17 320° NW
Fr, 12.07. 9:30 7 2 14 320° NW
Ortszeit Untergrenze Bedeckung Gattung
total tief tief mittel hoch
Fr, 12.07. 8:00 690 m 8/8 8/8 - - -
Fr, 12.07. 2:00 630 m 7/8 7/8 - - -
Do, 11.07. 20:00 480 m 7/8 7/8 - - -
Do, 11.07. 14:00 420 m 7/8 7/8 - - -
Do, 11.07. 8:00 8700 m 8/8 0/8 - - -
Do, 11.07. 2:00 8400 m 8/8 0/8 - - -
Mi, 10.07. 20:00 900 m 8/8 2/8 - - -
Mi, 10.07. 14:00 570 m 2/8 1/8 - - -
Ortszeit Bedeckungsgrad in Achtel und Wolkenuntergrenze
Fr, 12.07. 12:30 5(720m) 7(5700m) 8(6300m)
Fr, 12.07. 12:20 5(720m) 7(5700m) 8(6300m)
Fr, 12.07. 12:10 7
Fr, 12.07. 12:00 7(780m) 7(7200m) 7(7800m)
Fr, 12.07. 11:50 7(780m) 7(7200m) 7(7800m)
Fr, 12.07. 11:40 7
Fr, 12.07. 11:30 7(750m) 7(7500m)
Fr, 12.07. 11:00 7(750m)
Fr, 12.07. 10:30 2(720m) 5(9000m)
Fr, 12.07. 10:00 keine Wolken
Fr, 12.07. 9:30 1(720m)
Ortszeit Luftdruck NN (hPa) Tendenz (hPa in 3 Std.)
Fr, 12.07. 8:00 1016 - 0,4
Fr, 12.07. 2:00 1017 + 0,3
Do, 11.07. 20:00 1017 0,0
Do, 11.07. 14:00 1016 + 0,6
Do, 11.07. 8:00 1015 - 0,2
Do, 11.07. 2:00 1015 - 0,2
Mi, 10.07. 20:00 1014 0,0
Mi, 10.07. 14:00 1014 - 0,1
Ortszeit Luftdruck NN (hPa) Tendenz (hPa in 3 Std.)
Fr, 12.07. 12:30 1014 - 1,5
Fr, 12.07. 12:20 1014 keine Meldung
Fr, 12.07. 12:10 1014 keine Meldung
Fr, 12.07. 12:00 1014 - 1,5
Fr, 12.07. 11:50 1014 keine Meldung
Fr, 12.07. 11:40 1014 keine Meldung
Fr, 12.07. 11:30 1014 - 1,2
Fr, 12.07. 11:00 1015 - 0,8
Fr, 12.07. 10:30 1015 - 0,7
Fr, 12.07. 10:00 1015 - 0,9
Fr, 12.07. 9:30 1015 - 0,7
Ortszeit Schneehöhe (cm)
Fr, 12.07. 8:00 0
Fr, 12.07. 2:00 0
Do, 11.07. 20:00 0
Do, 11.07. 14:00 0
Do, 11.07. 8:00 0
Do, 11.07. 2:00 0
Mi, 10.07. 20:00 0
Mi, 10.07. 14:00 0
Ortszeit Schneehöhe (cm)
Fr, 12.07. 12:30 0
Fr, 12.07. 12:20 0
Fr, 12.07. 12:10 -
Fr, 12.07. 12:00 0
Fr, 12.07. 11:50 0
Fr, 12.07. 11:40 -
Fr, 12.07. 11:30 0
Fr, 12.07. 11:00 0
Fr, 12.07. 10:30 0
Fr, 12.07. 10:00 0
Fr, 12.07. 9:30 0
Link zu dieser Seite / Seite empfehlen

Das Wetter in ...